Simultaneous Nadir Overpasses (SNOs) Predictions

Prediction of SNOs over PacNW region [( 10.00, 139.50) to ( 22.70, 165.60)] between AQUA and NPP Satellites:

Table of predicted SNOs over PacNW region for the next 30.0 days since TLE Epoch: 7/21/2012
Index Date (AQUA) Time (AQUA) AQUA Lat,Lon Date (NPP) Time (NPP) NPP Lat,Lon Distance(km) Time Diff (sec)
1 07/21/2012 15:59:30 22.59, 147.40 07/21/2012 15:59:55 23.20, 144.59 296.18 25
2 07/29/2012 15:10:39 20.04, 159.18 07/29/2012 15:09:55 20.54, 156.60 274.32 44
3 08/06/2012 15:59:13 22.62, 147.45 08/06/2012 15:59:52 23.24, 144.58 301.64 39
4 08/14/2012 15:10:01 21.05, 159.48 08/14/2012 15:09:34 21.54, 156.85 278.16 27




NCC Satellite Simultaneous Nadir Overpasses (SNOs) Prediction Service
